User: anonymous   Login
Location: DARK SKY Beskydy - Park tmavé oblohy, www.darkskybeskydy.cz
(49.4926°N, 18.5016°E)
Time: 19:48:12
(UTC+02:00)
Language:

Transit 2A - Orbit

View from above orbital plane
View from above orbital plane
View from above satellite
View from above satellite

Ground track
Ground track

The orbit data is extracted from the following two-line orbital elements,

1 00045U 60007A   24204.81489521  .00000402  00000-0  12356-3 0  9998
2 00045  66.6944  35.5246 0258353 304.9203  52.7865 14.34801517280386
Epoch (UTC): 22 July 2024 19:33:26
Eccentricity: 0.0258353
inclination: 66.6944°
perigee height: 591 km
apogee height: 960 km
right ascension of ascending node: 35.5246°
argument of perigee: 304.9203°
revolutions per day: 14.34801517
mean anomaly at epoch: 52.7865°
orbit number at epoch: 28038

The dashed part of the orbit path shows where the satellite is in the earth's shadow,  

DLR